| time (UTC) | temp F | wind direction | speed MPH | gust MPH | rain 1hr in | rain 24hr in | rain mn in | humidity % | barometer mb |
| 20260508202738 | 75 | 256 | 4.0 | 7.0 | 0.00 | 0.00 | 0.00 | 15 | 1013.6 |
| 20260508202236 | 75 | 245 | 3.0 | 5.0 | 0.00 | 0.00 | 0.00 | 15 | 1013.6 |
| 20260508201735 | 76 | 215 | 3.0 | 6.0 | 0.00 | 0.00 | 0.00 | 15 | 1013.6 |
| 20260508201236 | 76 | 136 | 3.0 | 7.0 | 0.00 | 0.00 | 0.00 | 15 | 1013.6 |
| 20260508195734 | 75 | 135 | 3.0 | 6.0 | 0.00 | 0.00 | 0.00 | 15 | 1014.6 |
| 20260508195232 | 74 | 249 | 4.0 | 7.0 | 0.00 | 0.00 | 0.00 | 15 | 1013.6 |
| 20260508193225 | 74 | 109 | 4.0 | 5.0 | 0.00 | 0.00 | 0.00 | 15 | 1014.6 |
| 20260508191217 | 74 | 168 | 4.0 | 6.0 | 0.00 | 0.00 | 0.00 | 16 | 1014.6 |
| 20260508190713 | 74 | 80 | 4.0 | 6.0 | 0.00 | 0.00 | 0.00 | 16 | 1014.6 |
| 20260508190213 | 74 | 101 | 5.0 | 6.0 | 0.00 | 0.00 | 0.00 | 16 | 1014.6 |
| 20260508185209 | 74 | 135 | 4.0 | 7.0 | 0.00 | 0.00 | 0.00 | 15 | 1014.6 |
| 20260508184705 | 74 | 108 | 0.0 | 7.0 | 0.00 | 0.00 | 0.00 | 15 | 1014.6 |
| 20260508183701 | 73 | 110 | 0.0 | 6.0 | 0.00 | 0.00 | 0.00 | 16 | 1014.6 |
| 20260508183202 | 73 | 165 | 3.0 | 7.0 | 0.00 | 0.00 | 0.00 | 16 | 1014.6 |
| 20260508182702 | 73 | 125 | 5.0 | 6.0 | 0.00 | 0.00 | 0.00 | 16 | 1014.6 |
| 20260508181653 | 73 | 103 | 4.0 | 6.0 | 0.00 | 0.00 | 0.00 | 16 | 1015.6 |
| 20260508180648 | 73 | 121 | 5.0 | 3.0 | 0.00 | 0.00 | 0.00 | 16 | 1015.6 |
| 20260508175648 | 74 | 150 | 3.0 | 5.0 | 0.00 | 0.00 | 0.00 | 16 | 1015.6 |
| 20260508175146 | 73 | 94 | 4.0 | 4.0 | 0.00 | 0.00 | 0.00 | 16 | 1015.6 |
| 20260508174646 | 73 | 115 | 0.0 | 6.0 | 0.00 | 0.00 | 0.00 | 16 | 1015.6 |
| 20260508174147 | 72 | 113 | 4.0 | 8.0 | 0.00 | 0.00 | 0.00 | 16 | 1015.6 |
| 20260508173236 | 72 | 153 | 0.0 | 7.0 | 0.00 | 0.00 | 0.00 | 16 | 1016.6 |
| 20260508173145 | 72 | 153 | 0.0 | 7.0 | 0.00 | 0.00 | 0.00 | 16 | 1016.6 |
| 20260508172645 | 72 | 164 | 3.0 | 6.0 | 0.00 | 0.00 | 0.00 | 16 | 1016.6 |
| 20260508172143 | 72 | 108 | 0.0 | 5.0 | 0.00 | 0.00 | 0.00 | 16 | 1016.6 |
| 20260508171643 | 72 | 192 | 0.0 | 6.0 | 0.00 | 0.00 | 0.00 | 16 | 1016.6 |
| 20260508170640 | 71 | 252 | 4.0 | 5.0 | 0.00 | 0.00 | 0.00 | 16 | 1016.6 |
| 20260508170141 | 71 | 78 | 4.0 | 6.0 | 0.00 | 0.00 | 0.00 | 16 | 1016.6 |
| 20260508165138 | 71 | 129 | 4.0 | 7.0 | 0.00 | 0.00 | 0.00 | 16 | 1017.6 |
| 20260508164639 | 71 | 96 | 4.0 | 7.0 | 0.00 | 0.00 | 0.00 | 17 | 1017.6 |
| 20260508164129 | 71 | 91 | 4.0 | 8.0 | 0.00 | 0.00 | 0.00 | 17 | 1017.6 |
| 20260508163625 | 70 | 234 | 3.0 | 4.0 | 0.00 | 0.00 | 0.00 | 17 | 1017.6 |
| 20260508163124 | 70 | 160 | 3.0 | 8.0 | 0.00 | 0.00 | 0.00 | 17 | 1017.6 |
| 20260508162119 | 70 | 158 | 5.0 | 11.0 | 0.00 | 0.00 | 0.00 | 17 | 1017.6 |
| 20260508161619 | 69 | 120 | 3.0 | 9.0 | 0.00 | 0.00 | 0.00 | 17 | 1017.6 |
| 20260508161119 | 69 | 112 | 5.0 | 6.0 | 0.00 | 0.00 | 0.00 | 17 | 1017.6 |
| 20260508160617 | 69 | 115 | 5.0 | 8.0 | 0.00 | 0.00 | 0.00 | 17 | 1017.6 |
| 20260508160109 | 68 | 98 | 4.0 | 7.0 | 0.00 | 0.00 | 0.00 | 17 | 1017.6 |
| 20260508155610 | 68 | 59 | 4.0 | 8.0 | 0.00 | 0.00 | 0.00 | 17 | 1017.6 |
| 20260508155105 | 68 | 47 | 5.0 | 8.0 | 0.00 | 0.00 | 0.00 | 17 | 1017.6 |
| 20260508154605 | 68 | 147 | 5.0 | 6.0 | 0.00 | 0.00 | 0.00 | 17 | 1017.6 |
| 20260508154106 | 67 | 83 | 4.0 | 8.0 | 0.00 | 0.00 | 0.00 | 17 | 1017.6 |
| 20260508153603 | 67 | 146 | 4.0 | 8.0 | 0.00 | 0.00 | 0.00 | 17 | 1017.6 |
| 20260508153103 | 67 | 168 | 6.0 | 7.0 | 0.00 | 0.00 | 0.00 | 17 | 1017.6 |
| 20260508152601 | 67 | 120 | 5.0 | 9.0 | 0.00 | 0.00 | 0.00 | 17 | 1017.6 |
| 20260508152058 | 66 | 137 | 6.0 | 7.0 | 0.00 | 0.00 | 0.00 | 17 | 1017.6 |
| 20260508151553 | 66 | 82 | 5.0 | 8.0 | 0.00 | 0.00 | 0.00 | 17 | 1017.6 |
| 20260508150049 | 65 | 100 | 6.0 | 7.0 | 0.00 | 0.00 | 0.00 | 17 | 1017.6 |
| 20260508144544 | 64 | 84 | 4.0 | 8.0 | 0.00 | 0.00 | 0.00 | 18 | 1017.6 |
| 20260508143038 | 63 | 175 | 4.0 | 7.0 | 0.00 | 0.00 | 0.00 | 18 | 1018.6 |
| 20260508142030 | 63 | 81 | 3.0 | 5.0 | 0.00 | 0.00 | 0.00 | 18 | 1018.6 |
| 20260508141531 | 62 | 167 | 4.0 | 7.0 | 0.00 | 0.00 | 0.00 | 18 | 1018.6 |
| 20260508135524 | 60 | 158 | 6.0 | 7.0 | 0.00 | 0.00 | 0.00 | 25 | 1018.6 |
| 20260508135022 | 60 | 147 | 4.0 | 5.0 | 0.00 | 0.00 | 0.00 | 26 | 1018.6 |
| 20260508134503 | 59 | 161 | 4.0 | 7.0 | 0.00 | 0.00 | 0.00 | 29 | 1018.6 |
| 20260508133445 | 59 | 105 | 4.0 | 5.0 | 0.00 | 0.00 | 0.00 | 36 | 1018.6 |
| 20260508132446 | 58 | 136 | 0.0 | 4.0 | 0.00 | 0.00 | 0.00 | 43 | 1018.6 |
| 20260508131940 | 57 | 136 | 3.0 | 4.0 | 0.00 | 0.00 | 0.00 | 47 | 1018.6 |
| 20260508131441 | 56 | 154 | 4.0 | 4.0 | 0.00 | 0.00 | 0.00 | 49 | 1018.6 |
| 20260508130942 | 56 | 332 | 0.0 | 0.0 | 0.00 | 0.00 | 0.00 | 54 | 1018.6 |
| 20260508130435 | 56 | 332 | 0.0 | 0.0 | 0.00 | 0.00 | 0.00 | 56 | 1018.6 |
| 20260508125934 | 55 | 332 | 0.0 | 0.0 | 0.00 | 0.00 | 0.00 | 57 | 1018.6 |
| 20260508125431 | 55 | 332 | 0.0 | 0.0 | 0.00 | 0.00 | 0.00 | 57 | 1018.6 |
| 20260508123930 | 53 | 332 | 0.0 | 0.0 | 0.00 | 0.00 | 0.00 | 57 | 1017.6 |
| 20260508123423 | 53 | 332 | 0.0 | 0.0 | 0.00 | 0.00 | 0.00 | 57 | 1017.6 |
| 20260508122424 | 52 | 332 | 0.0 | 0.0 | 0.00 | 0.00 | 0.00 | 57 | 1017.6 |
| 20260508121918 | 51 | 332 | 0.0 | 0.0 | 0.00 | 0.00 | 0.00 | 56 | 1017.6 |
| 20260508121419 | 51 | 332 | 0.0 | 0.0 | 0.00 | 0.00 | 0.00 | 56 | 1017.6 |
| 20260508120919 | 50 | 332 | 0.0 | 0.0 | 0.00 | 0.00 | 0.00 | 56 | 1017.6 |
| 20260508120416 | 50 | 332 | 0.0 | 0.0 | 0.00 | 0.00 | 0.00 | 55 | 1017.6 |
| 20260508115915 | 49 | 332 | 0.0 | 0.0 | 0.00 | 0.00 | 0.00 | 55 | 1017.6 |
| 20260508115414 | 49 | 332 | 0.0 | 0.0 | 0.00 | 0.00 | 0.00 | 56 | 1017.6 |
| 20260508114911 | 48 | 332 | 0.0 | 0.0 | 0.00 | 0.00 | 0.00 | 55 | 1017.6 |
| 20260508113910 | 48 | 332 | 0.0 | 0.0 | 0.00 | 0.00 | 0.00 | 54 | 1017.6 |
| 20260508113403 | 48 | 332 | 0.0 | 0.0 | 0.00 | 0.00 | 0.00 | 54 | 1017.6 |
| 20260508112903 | 47 | 332 | 0.0 | 0.0 | 0.00 | 0.00 | 0.00 | 53 | 1017.6 |
| 20260508111854 | 47 | 332 | 0.0 | 0.0 | 0.00 | 0.00 | 0.00 | 53 | 1017.6 |
| 20260508111354 | 47 | 332 | 0.0 | 0.0 | 0.00 | 0.00 | 0.00 | 53 | 1017.6 |
| 20260508110855 | 47 | 332 | 0.0 | 0.0 | 0.00 | 0.00 | 0.00 | 53 | 1017.6 |
| 20260508110352 | 47 | 332 | 0.0 | 0.0 | 0.00 | 0.00 | 0.00 | 53 | 1017.6 |
| 20260508105851 | 47 | 332 | 0.0 | 0.0 | 0.00 | 0.00 | 0.00 | 52 | 1017.6 |
| 20260508105350 | 47 | 332 | 0.0 | 0.0 | 0.00 | 0.00 | 0.00 | 52 | 1017.6 |
| 20260508104844 | 47 | 332 | 0.0 | 0.0 | 0.00 | 0.00 | 0.00 | 52 | 1017.6 |
| 20260508103342 | 47 | 332 | 0.0 | 0.0 | 0.00 | 0.00 | 0.00 | 51 | 1017.6 |
| 20260508102842 | 47 | 332 | 0.0 | 0.0 | 0.00 | 0.00 | 0.00 | 51 | 1017.6 |
| 20260508102342 | 47 | 332 | 0.0 | 0.0 | 0.00 | 0.00 | 0.00 | 51 | 1017.6 |
| 20260508101839 | 48 | 332 | 0.0 | 0.0 | 0.00 | 0.00 | 0.00 | 51 | 1016.6 |
| 20260508101338 | 48 | 332 | 0.0 | 0.0 | 0.00 | 0.00 | 0.00 | 51 | 1016.6 |
| 20260508100838 | 48 | 332 | 0.0 | 0.0 | 0.00 | 0.00 | 0.00 | 51 | 1016.6 |
| 20260508095327 | 48 | 332 | 0.0 | 0.0 | 0.00 | 0.00 | 0.00 | 50 | 1016.6 |
| 20260508094824 | 48 | 332 | 0.0 | 0.0 | 0.00 | 0.00 | 0.00 | 50 | 1016.6 |
| 20260508094325 | 48 | 332 | 0.0 | 0.0 | 0.00 | 0.00 | 0.00 | 50 | 1016.6 |
| 20260508093825 | 48 | 332 | 0.0 | 0.0 | 0.00 | 0.00 | 0.00 | 50 | 1016.6 |
| 20260508093321 | 48 | 332 | 0.0 | 0.0 | 0.00 | 0.00 | 0.00 | 49 | 1016.6 |
| 20260508092821 | 48 | 332 | 0.0 | 0.0 | 0.00 | 0.00 | 0.00 | 50 | 1016.6 |
| 20260508092321 | 49 | 332 | 0.0 | 0.0 | 0.00 | 0.00 | 0.00 | 50 | 1016.6 |
| 20260508091318 | 48 | 332 | 0.0 | 0.0 | 0.00 | 0.00 | 0.00 | 49 | 1016.6 |
| 20260508085810 | 49 | 332 | 0.0 | 0.0 | 0.00 | 0.00 | 0.00 | 49 | 1016.6 |
| 20260508085307 | 49 | 332 | 0.0 | 0.0 | 0.00 | 0.00 | 0.00 | 48 | 1016.6 |
| 20260508084303 | 49 | 332 | 0.0 | 0.0 | 0.00 | 0.00 | 0.00 | 48 | 1016.6 |
| 20260508083255 | 49 | 332 | 0.0 | 0.0 | 0.00 | 0.00 | 0.00 | 48 | 1015.6 |
| 20260508082757 | 49 | 332 | 0.0 | 0.0 | 0.00 | 0.00 | 0.00 | 48 | 1015.6 |
| 20260508082255 | 49 | 332 | 0.0 | 0.0 | 0.00 | 0.00 | 0.00 | 47 | 1015.6 |
| 20260508081750 | 49 | 332 | 0.0 | 0.0 | 0.00 | 0.00 | 0.00 | 47 | 1015.6 |
| 20260508081251 | 49 | 332 | 0.0 | 0.0 | 0.00 | 0.00 | 0.00 | 47 | 1015.6 |
| 20260508080751 | 49 | 332 | 0.0 | 0.0 | 0.00 | 0.00 | 0.00 | 47 | 1015.6 |
| 20260508080246 | 49 | 332 | 0.0 | 0.0 | 0.00 | 0.00 | 0.00 | 47 | 1015.6 |
| 20260508075746 | 49 | 332 | 0.0 | 0.0 | 0.00 | 0.00 | 0.00 | 47 | 1015.6 |
| 20260508075246 | 50 | 332 | 0.0 | 0.0 | 0.00 | 0.00 | 0.00 | 47 | 1015.6 |
| 20260508074735 | 50 | 332 | 0.0 | 0.0 | 0.00 | 0.00 | 0.00 | 47 | 1015.6 |
| 20260508074235 | 50 | 332 | 0.0 | 0.0 | 0.00 | 0.00 | 0.00 | 46 | 1015.6 |
| 20260508073737 | 50 | 332 | 0.0 | 0.0 | 0.00 | 0.00 | 0.00 | 46 | 1016.6 |
| 20260508073231 | 50 | 332 | 0.0 | 0.0 | 0.00 | 0.00 | 0.00 | 46 | 1016.6 |
| 20260508072731 | 50 | 332 | 0.0 | 0.0 | 0.00 | 0.00 | 0.00 | 46 | 1016.6 |
| 20260508072231 | 50 | 332 | 0.0 | 0.0 | 0.00 | 0.00 | 0.00 | 46 | 1016.6 |
| 20260508071726 | 50 | 332 | 0.0 | 0.0 | 0.00 | 0.00 | 0.00 | 46 | 1016.6 |
| 20260508071226 | 50 | 332 | 0.0 | 0.0 | 0.00 | 0.00 | 0.00 | 46 | 1016.6 |
| 20260508070726 | 50 | 332 | 0.0 | 0.0 | 0.00 | 0.00 | 0.00 | 46 | 1016.6 |
| 20260508064717 | 51 | 332 | 0.0 | 0.0 | 0.00 | 0.00 | 0.00 | 44 | 1016.6 |
| 20260508064215 | 51 | 332 | 0.0 | 0.0 | 0.00 | 0.00 | 0.00 | 44 | 1016.6 |
| 20260508063715 | 51 | 332 | 0.0 | 0.0 | 0.00 | 0.00 | 0.00 | 44 | 1016.6 |
| 20260508062712 | 51 | 332 | 0.0 | 0.0 | 0.00 | 0.00 | 0.00 | 43 | 1016.6 |
| 20260508062213 | 51 | 332 | 0.0 | 0.0 | 0.00 | 0.00 | 0.00 | 43 | 1016.6 |
| 20260508061707 | 51 | 332 | 0.0 | 0.0 | 0.00 | 0.00 | 0.00 | 42 | 1016.6 |
| 20260508061207 | 51 | 332 | 0.0 | 0.0 | 0.00 | 0.00 | 0.00 | 42 | 1016.6 |
| 20260508060708 | 52 | 332 | 0.0 | 0.0 | 0.00 | 0.00 | 0.00 | 42 | 1016.6 |
| 20260508060204 | 52 | 332 | 0.0 | 0.0 | 0.00 | 0.00 | 0.00 | 42 | 1016.6 |
| 20260508055704 | 52 | 332 | 0.0 | 0.0 | 0.00 | 0.00 | 0.00 | 42 | 1016.6 |
| 20260508055205 | 52 | 332 | 0.0 | 0.0 | 0.00 | 0.00 | 0.00 | 42 | 1016.6 |
| 20260508054702 | 52 | 332 | 0.0 | 0.0 | 0.00 | 0.00 | 0.00 | 42 | 1016.6 |
| 20260508054203 | 52 | 332 | 0.0 | 0.0 | 0.00 | 0.00 | 0.00 | 41 | 1016.6 |
| 20260508053703 | 52 | 332 | 0.0 | 0.0 | 0.00 | 0.00 | 0.00 | 41 | 1016.6 |
| 20260508053201 | 52 | 332 | 0.0 | 0.0 | 0.00 | 0.00 | 0.00 | 41 | 1016.6 |
| 20260508052701 | 52 | 332 | 0.0 | 0.0 | 0.00 | 0.00 | 0.00 | 41 | 1016.6 |
| 20260508052202 | 52 | 332 | 0.0 | 0.0 | 0.00 | 0.00 | 0.00 | 41 | 1016.6 |
| 20260508051656 | 52 | 332 | 0.0 | 0.0 | 0.00 | 0.00 | 0.00 | 41 | 1016.6 |
| 20260508051157 | 52 | 332 | 0.0 | 0.0 | 0.00 | 0.00 | 0.00 | 40 | 1016.6 |
| 20260508050657 | 53 | 332 | 0.0 | 0.0 | 0.00 | 0.00 | 0.00 | 40 | 1016.6 |
| 20260508050151 | 53 | 332 | 0.0 | 0.0 | 0.00 | 0.00 | 0.00 | 39 | 1016.6 |
| 20260508045651 | 53 | 332 | 0.0 | 0.0 | 0.00 | 0.00 | 0.00 | 39 | 1016.6 |
| 20260508045152 | 53 | 332 | 0.0 | 0.0 | 0.00 | 0.00 | 0.00 | 39 | 1016.6 |
| 20260508044649 | 53 | 332 | 0.0 | 0.0 | 0.00 | 0.00 | 0.00 | 39 | 1016.6 |
| 20260508044150 | 53 | 332 | 0.0 | 0.0 | 0.00 | 0.00 | 0.00 | 38 | 1016.6 |
| 20260508043650 | 53 | 332 | 0.0 | 0.0 | 0.00 | 0.00 | 0.00 | 38 | 1016.6 |
| 20260508043141 | 54 | 332 | 0.0 | 0.0 | 0.00 | 0.00 | 0.00 | 38 | 1016.6 |
| 20260508042138 | 54 | 332 | 0.0 | 0.0 | 0.00 | 0.00 | 0.00 | 37 | 1016.6 |
| 20260508041636 | 54 | 332 | 0.0 | 0.0 | 0.00 | 0.00 | 0.00 | 38 | 1016.6 |
| 20260508040635 | 54 | 332 | 0.0 | 0.0 | 0.00 | 0.00 | 0.00 | 37 | 1016.6 |
| 20260508040125 | 54 | 332 | 0.0 | 0.0 | 0.00 | 0.00 | 0.00 | 37 | 1016.6 |
| 20260508035623 | 54 | 332 | 0.0 | 0.0 | 0.00 | 0.00 | 0.00 | 37 | 1016.6 |
| 20260508035123 | 54 | 332 | 0.0 | 0.0 | 0.00 | 0.00 | 0.00 | 37 | 1016.6 |
| 20260508034621 | 54 | 332 | 0.0 | 0.0 | 0.00 | 0.00 | 0.00 | 36 | 1016.6 |
| 20260508034121 | 54 | 332 | 0.0 | 0.0 | 0.00 | 0.00 | 0.00 | 36 | 1016.6 |
| 20260508033619 | 54 | 332 | 0.0 | 0.0 | 0.00 | 0.00 | 0.00 | 36 | 1016.6 |
| 20260508032617 | 55 | 332 | 0.0 | 0.0 | 0.00 | 0.00 | 0.00 | 35 | 1016.6 |
| 20260508032118 | 55 | 332 | 0.0 | 0.0 | 0.00 | 0.00 | 0.00 | 35 | 1016.6 |
| 20260508031615 | 55 | 332 | 0.0 | 0.0 | 0.00 | 0.00 | 0.00 | 35 | 1016.6 |
| 20260508031116 | 55 | 332 | 0.0 | 0.0 | 0.00 | 0.00 | 0.00 | 35 | 1016.6 |
| 20260508030615 | 55 | 332 | 0.0 | 0.0 | 0.00 | 0.00 | 0.00 | 35 | 1016.6 |
| 20260508030109 | 55 | 332 | 0.0 | 0.0 | 0.00 | 0.00 | 0.00 | 35 | 1016.6 |
| 20260508025609 | 56 | 332 | 0.0 | 0.0 | 0.00 | 0.00 | 0.00 | 34 | 1016.6 |
| 20260508025110 | 56 | 332 | 0.0 | 0.0 | 0.00 | 0.00 | 0.00 | 33 | 1016.6 |
| 20260508024602 | 56 | 332 | 0.0 | 0.0 | 0.00 | 0.00 | 0.00 | 32 | 1016.6 |
| 20260508024103 | 56 | 332 | 0.0 | 0.0 | 0.00 | 0.00 | 0.00 | 31 | 1016.6 |
| 20260508022558 | 57 | 332 | 0.0 | 0.0 | 0.00 | 0.00 | 0.00 | 30 | 1016.6 |
| 20260508022058 | 57 | 332 | 0.0 | 0.0 | 0.00 | 0.00 | 0.00 | 30 | 1016.6 |
| 20260508021553 | 57 | 332 | 0.0 | 0.0 | 0.00 | 0.00 | 0.00 | 29 | 1016.6 |
| 20260508021053 | 57 | 332 | 0.0 | 0.0 | 0.00 | 0.00 | 0.00 | 29 | 1016.6 |
| 20260508020552 | 57 | 332 | 0.0 | 0.0 | 0.00 | 0.00 | 0.00 | 29 | 1015.6 |
| 20260508020045 | 58 | 332 | 0.0 | 0.0 | 0.00 | 0.00 | 0.00 | 28 | 1015.6 |
| 20260508015547 | 58 | 332 | 0.0 | 0.0 | 0.00 | 0.00 | 0.00 | 28 | 1015.6 |
| 20260508015045 | 58 | 332 | 0.0 | 0.0 | 0.00 | 0.00 | 0.00 | 27 | 1015.6 |
| 20260508013036 | 59 | 332 | 0.0 | 0.0 | 0.00 | 0.00 | 0.00 | 26 | 1015.6 |
| 20260508012037 | 59 | 332 | 0.0 | 0.0 | 0.00 | 0.00 | 0.00 | 25 | 1015.6 |
| 20260508011531 | 60 | 332 | 0.0 | 0.0 | 0.00 | 0.00 | 0.00 | 25 | 1015.6 |
| 20260508011031 | 60 | 332 | 0.0 | 0.0 | 0.00 | 0.00 | 0.00 | 24 | 1015.6 |
| 20260508005525 | 60 | 332 | 0.0 | 0.0 | 0.00 | 0.00 | 0.00 | 24 | 1015.6 |
| 20260508004522 | 61 | 332 | 0.0 | 0.0 | 0.00 | 0.00 | 0.00 | 21 | 1015.6 |
| 20260508002018 | 63 | 332 | 0.0 | 0.0 | 0.00 | 0.00 | 0.00 | 18 | 1015.6 |
| 20260508001516 | 64 | 332 | 0.0 | 0.0 | 0.00 | 0.00 | 0.00 | 18 | 1015.6 |
| 20260508001016 | 65 | 332 | 0.0 | 0.0 | 0.00 | 0.00 | 0.00 | 18 | 1015.6 |
| 20260508000516 | 65 | 332 | 0.0 | 0.0 | 0.00 | 0.00 | 0.00 | 18 | 1015.6 |
| 20260508000009 | 65 | 332 | 0.0 | 0.0 | 0.00 | 0.00 | 0.00 | 17 | 1015.6 |
| 20260507235509 | 66 | 332 | 0.0 | 0.0 | 0.00 | 0.00 | 0.00 | 17 | 1015.6 |
| 20260507235009 | 66 | 332 | 0.0 | 0.0 | 0.00 | 0.00 | 0.00 | 17 | 1014.6 |
| 20260507234507 | 67 | 332 | 0.0 | 0.0 | 0.00 | 0.00 | 0.00 | 17 | 1014.6 |
| 20260507234007 | 67 | 332 | 0.0 | 0.0 | 0.00 | 0.00 | 0.00 | 17 | 1014.6 |
| 20260507233508 | 67 | 332 | 0.0 | 0.0 | 0.00 | 0.00 | 0.00 | 17 | 1014.6 |
| 20260507222448 | 71 | 327 | 0.0 | 0.0 | 0.00 | 0.00 | 0.00 | 17 | 1014.6 |
| 20260507221949 | 71 | 351 | 0.0 | 0.0 | 0.00 | 0.00 | 0.00 | 16 | 1014.6 |
| 20260507215419 | 70 | 334 | 0.0 | 0.0 | 0.00 | 0.00 | 0.00 | 17 | 1014.6 |
| 20260507213918 | 71 | 320 | 0.0 | 4.0 | 0.00 | 0.00 | 0.00 | 16 | 1014.6 |
| 20260507213417 | 71 | 351 | 0.0 | 0.0 | 0.00 | 0.00 | 0.00 | 16 | 1014.6 |
| 20260507212915 | 71 | 9 | 0.0 | 4.0 | 0.00 | 0.00 | 0.00 | 16 | 1014.6 |
| 20260507212415 | 70 | 351 | 4.0 | 8.0 | 0.00 | 0.00 | 0.00 | 17 | 1014.6 |
| 20260507211915 | 70 | 335 | 0.0 | 0.0 | 0.00 | 0.00 | 0.00 | 17 | 1014.6 |
| 20260507211413 | 70 | 356 | 0.0 | 6.0 | 0.00 | 0.00 | 0.00 | 17 | 1014.6 |
| 20260507210414 | 71 | 339 | 0.0 | 0.0 | 0.00 | 0.00 | 0.00 | 16 | 1014.6 |
| 20260507205909 | 71 | 310 | 0.0 | 4.0 | 0.00 | 0.00 | 0.00 | 16 | 1014.6 |
| 20260507205409 | 71 | 307 | 0.0 | 0.0 | 0.00 | 0.00 | 0.00 | 16 | 1014.6 |
| 20260507204910 | 71 | 330 | 0.0 | 9.0 | 0.00 | 0.00 | 0.00 | 16 | 1014.6 |
| 20260507203408 | 71 | 42 | 0.0 | 3.0 | 0.00 | 0.00 | 0.00 | 16 | 1014.6 |